SCP
0 -0 -0 -0 -0 -0 -0 -0 0 0 0 0 0 0 0 0 -0 -0 0 0 0 0 0 0 0 0 0 0 0 0 0 0 0 0 0 0 0 0 0 -0 0 0 -0
-0 -0 -0 -0 -0 -0 0 0 0 0 0 0 0 0 0 0 0 0 -0 -0 -0 0 0 0 0 0 0 0 -0 0 0 0 0 0 0 0 0 -0 0 -0 -0 0 -0
-0 -0 -0 0 -0 -0 0 0 0 0 0 0 0 0 0 0 0 0 -0 -0 0 -0 -0 -0 -0 -0 -0 -0 -0 -0 -0 -0 -0 -0 0 -0 -0 -0 -0 -0 -0 -0 -0
-0 0 0 0 0 0 0 0 0 0 0 0 0 0 0 0 0 -0 -0 -0 -0 -0 -0 -0 -0 -0 -0 -0 -0 -0 -0 -0 -0 -0 -0 0 0 -0 -0 -0 -0 -0 -0
0 0 0 0 0 0 0 0 0 0 0 0 0 0 0 0 -0 -0 -0 -0 -0 -0 -0 -0 -0 -0 -0 -0 -0 -0 -0 -0 -0 -0 -0 0 0 0 -0 -0 -0 -0 -0
0 0 -0 -0 0 0 0 0 0 0 0 0 0 0 0 0 0 -0 -0 -0 -0 -0 -0 -0 -0 -0 -0 -0 -0 -0 -0 -0 -0 -0 -0 0 0 0 0 0 0 0 0
0 0 0 -0 0 0 0 0 0 0 0 0 0 0 0 0 0 0 0 -0 0 -0 0 0 0 -0 -0 -0 -0 -0 -0 -0 -0 -0 0 0 0 0 0 0 0 0 0
0 0 0 0 0 0 0 0 0 0 0 0 0 0 0 0 0 0 0 0 0 -0 0 0 0 -0 -0 -0 -0 -0 -0 -0 -0 -0 -0 0 0 0 0 0 0 0 0
0 0 0 0 0 0 0 0 0 0 0 0 0 -0 -0 -0 -0 -0 -0 -0 -0 0 0 0 0 0 -0 -0 -0 -0 0 -0 -0 -0 -0 0 0 0 0 -0 0 0 0
0 0 0 0 -0 0 0 0 0 0 0 -0 -0 -0 -0 -0 -0 -0 -0 -0 -0 0 0 0 0 0 0 0 0 0 0 0 0 0 -0 0 0 0 0 0 0 0 0
0 0 0 0 0 0 0 0 0 0 0 0 0 -0 -0 -0 -0 -0 0 0 0 0 0 0 0 1 1 0 0 0 0 -0 -0 0 0 0 0 0 0 0 0 0 0
0 0 0 0 -0 0 0 0 0 0 0 0 0 0 0 0 0 0 0 1 0 0 1 1 1 0 0 0 0 0 -0 -0 -0 0 -0 -0 1 0 1 0 0 0 0
0 -0 0 0 0 0 0 -0 0 0 -0 0 0 0 0 0 0 0 0 1 1 0 1 1 0 0 0 0 0 0 0 0 0 0 0 -0 0 0 0 0 0 0 0
0 0 0 -0 0 0 0 -0 0 0 0 0 0 0 0 1 0 0 0 0 0 0 1 0 0 0 0 0 0 0 0 0 0 0 0 -0 1 0 1 1 1 1 1
0 0 0 0 0 0 0 0 0 1 0 1 1 0 0 0 0 0 0 0 0 0 0 0 0 0 0 0 0 0 0 0 0 0 0 0 0 1 1 1 1 0 0
0 -0 0 -0 0 1 1 1 1 0 0 0 0 0 0 0 0 0 0 0 0 0 0 0 0 0 0 0 0 0 0 0 0 0 0 0 1 1 1 1 1 1 1
1 0 0 0 0 0 0 1 1 0 0 0 0 0 0 0 0 0 0 0 0 0 0 0 0 0 0 0 0 0 0 0 0 0 0 1 1 1 1 0 1 1 1
0 0 0 0 0 0 0 0 0 0 0 0 0 0 0 0 0 0 0 0 0 0 0 0 0 0 0 0 0 0 0 0 0 0 0 0 0 0 0 0 1 1 0
0 0 0 0 0 0 0 0 0 0 0 0 0 0 0 0 0 0 0 0 0 0 0 0 0 0 0 0 0 0 0 0 -0 0 0 0 0 0 0 1 1 0 0
0 0 0 0 0 0 0 0 0 0 0 0 0 0 0 0 0 0 0 0 0 0 0 0 0 0 0 0 0 0 0 0 0 0 0 0 0 0 0 0 0 0 1
0 0 0 0 0 0 0 0 0 0 0 0 0 0 0 0 0 0 0 0 0 0 0 0 0 0 0 0 0 0 0 0 0 0 0 0 0 0 0 0 0 0 0
0 0 0 0 0 0 0 0 0 0 0 0 0 0 0 0 0 0 0 0 0 0 0 0 0 0 0 0 0 0 0 0 0 0 0 0 0 0 0 0 0 0 0
0 0 0 0 0 0 0 0 0 0 -0 -0 0 0 0 0 0 0 0 0 0 0 1 0 0 0 0 0 0 0 0 0 0 0 0 0 0 0 0 0 0 0 0
0 0 0 0 0 0 0 0 0 0 0 0 -0 0 0 0 0 0 0 0 -0 0 -0 0 0 0 0 0 0 0 0 0 0 0 0 0 0 0 0 0 0 0 0
0 0 0 0 0 0 0 0 0 0 0 0 0 0 0 0 0 0 0 0 0 0 1 1 1 1 0 0 0 0 0 0 0 0 0 0 0 0 0 0 0 0 0
0 0 0 0 0 0 0 0 0 0 0 0 0 0 0 0 0 0 0 0 0 0 0 0 0 0 0 0 0 0 0 0 0 0 0 0 0 0 0 0 0 0 0
Wind_Speed_500mb
17 15 19 21 29 30 29 26 29 32 30 32 33 32 30 29 28 28 28 27 27 28 28 28 28 30 33 37 41 44 47 43 47 53 53 48 44 43 43 40 37 38 37
16 13 14 17 23 27 32 30 28 28 29 27 29 28 26 24 24 23 23 22 22 22 23 24 25 25 27 30 34 36 35 35 37 37 39 46 44 39 36 35 35 37 37
15 18 14 16 22 26 34 32 29 26 25 24 26 25 22 20 19 20 18 17 17 17 17 19 20 21 22 25 27 28 25 23 23 25 26 29 34 37 32 30 31 32 33
9 17 15 16 19 26 31 30 30 25 23 21 19 20 19 15 15 15 14 13 12 13 13 13 15 16 17 19 21 22 19 16 19 21 16 17 16 24 29 26 27 26 27
12 15 15 17 21 25 28 28 28 24 21 18 17 15 15 12 10 9 9 8 7 7 8 9 11 13 13 14 15 15 13 10 13 17 15 9 9 13 25 22 20 21 22
8 8 6 10 17 25 28 26 24 24 19 16 13 13 13 11 9 6 3 2 2 4 6 9 10 12 14 14 15 12 8 3 4 4 11 8 12 11 24 23 19 17 17
11 7 6 7 11 17 24 28 28 26 22 17 13 12 12 11 9 6 4 5 6 8 9 11 13 15 16 18 18 19 18 15 10 6 4 5 13 19 26 26 22 18 14
12 12 9 9 10 13 18 24 26 25 23 19 16 15 14 12 11 9 9 9 11 12 12 14 16 18 21 22 24 25 26 26 22 11 13 6 21 30 29 20 25 25 18
11 15 6 2 9 15 16 16 20 21 21 19 19 18 17 17 16 14 13 13 13 15 15 16 18 20 22 26 28 31 31 30 28 22 15 24 13 28 34 28 29 33 29
15 15 23 7 6 9 10 13 16 18 21 23 23 21 20 19 17 17 17 17 16 18 20 22 22 24 26 27 29 31 32 38 42 37 15 17 23 27 35 31 32 37 36
16 11 17 23 7 11 7 7 8 11 14 15 17 18 17 14 13 10 8 12 17 17 19 21 21 18 17 23 29 32 32 29 31 41 22 14 30 41 33 26 35 40 39
12 2 13 32 6 9 4 9 7 8 9 10 10 11 9 6 3 7 8 16 26 24 20 22 23 25 20 22 28 40 40 40 34 32 40 29 38 23 22 26 35 44 37
20 9 3 20 10 5 14 15 3 5 6 5 8 10 8 8 9 13 20 23 19 20 22 23 27 29 30 41 26 43 42 30 30 34 24 15 17 22 35 27 32 38 39
8 17 4 13 15 14 15 11 15 13 11 14 16 14 17 16 17 20 20 17 10 13 16 13 16 20 24 24 18 31 33 60 48 34 30 22 40 37 39 36 30 32 38
24 12 4 25 13 3 10 19 30 17 18 20 24 30 30 30 29 21 25 20 20 13 12 11 15 20 24 23 20 24 26 30 32 38 32 38 33 40 39 37 37 28 39
26 22 15 7 10 10 19 23 17 22 19 30 39 40 34 37 35 32 33 30 22 20 12 12 10 5 13 14 17 21 21 20 39 41 43 40 40 44 40 32 37 38 36
23 20 29 18 10 18 7 11 6 12 25 32 35 39 35 34 32 27 30 27 25 22 23 21 15 10 14 19 18 17 19 28 26 24 32 34 31 36 43 27 32 39 33
25 16 7 10 20 14 6 5 7 10 8 19 30 30 24 23 22 22 25 24 20 18 18 16 12 11 9 15 17 8 19 22 25 23 23 30 40 32 26 31 27 21 29
26 28 24 14 13 17 13 7 10 11 13 10 19 21 21 22 21 18 20 11 11 10 11 7 7 14 16 17 21 20 23 28 31 33 29 23 35 18 21 31 21 14 13
30 23 21 25 24 10 9 10 3 7 16 16 21 26 27 22 15 11 8 5 7 6 12 13 18 20 23 24 24 29 31 28 24 32 33 33 34 26 27 32 20 17 16
28 30 31 35 34 13 15 19 13 15 15 8 17 13 16 20 12 21 21 17 10 9 18 33 40 42 40 34 35 36 35 34 25 30 26 19 17 23 26 30 37 34 24
29 31 27 26 32 36 29 27 33 29 31 28 24 18 25 27 29 23 13 14 19 44 54 53 42 35 36 36 36 35 39 45 13 14 25 21 19 19 24 26 21 19 21
25 30 30 31 18 21 29 41 39 41 46 47 39 38 40 41 40 40 41 27 53 65 54 59 37 31 37 40 28 21 13 13 43 38 26 24 27 25 20 13 15 12 13
21 32 26 7 11 17 33 46 50 47 53 66 65 60 56 51 40 35 40 45 43 49 44 52 57 43 39 48 43 27 29 36 36 25 16 26 19 24 8 9 16 21 27
18 14 11 26 35 37 45 45 47 43 47 48 56 61 67 66 61 54 51 47 42 40 36 38 47 44 40 43 49 45 43 41 37 33 26 15 15 20 15 14 20 22 29
31 41 41 44 39 47 52 46 44 44 38 45 54 61 67 66 55 43 50 52 50 39 34 41 48 49 48 46 50 56 48 40 32 30 31 18 16 11 21 21 16 15 15
Wind_Direction_500mb
132 143 143 154 155 155 153 143 130 127 128 125 117 107 102 101 99 96 92 87 84 81 79 78 76 74 73 71 69 70 72 75 71 66 60 58 59 64 67 69 69 69 68
155 146 141 148 156 157 157 150 140 135 132 130 122 115 111 108 105 99 94 89 81 76 73 70 68 66 68 70 69 71 72 71 69 67 63 54 49 52 63 67 68 70 69
152 151 144 143 153 159 162 156 149 144 142 143 136 127 121 116 112 105 96 89 84 75 67 61 58 56 57 62 68 71 68 70 71 57 50 63 44 37 47 59 63 66 71
137 148 141 140 151 158 166 163 158 152 149 149 145 139 134 130 120 112 103 91 78 67 55 48 45 44 41 47 61 73 68 58 53 43 37 14 37 31 27 40 53 59 64
77 146 150 151 155 162 171 171 168 163 155 156 155 158 146 143 141 129 111 94 73 53 39 26 21 19 21 23 33 57 82 77 64 46 37 304 336 347 359 18 34 49 52
136 147 144 170 164 165 171 174 175 177 172 166 166 174 171 167 168 163 150 102 18 360 354 349 346 348 351 354 357 5 19 70 187 30 21 250 333 331 341 350 2 21 38
141 202 210 192 187 179 178 179 181 185 187 187 186 193 195 191 196 215 234 280 305 312 319 324 325 324 326 331 336 338 338 336 333 130 72 271 287 302 319 331 341 345 358
116 112 157 174 183 187 195 190 192 194 195 199 203 207 207 209 219 234 258 277 289 296 306 312 316 318 319 324 328 329 330 331 327 284 275 281 269 275 303 321 334 327 318
53 33 20 108 180 191 203 205 203 197 200 202 208 207 210 217 227 241 257 274 289 294 304 309 316 316 321 322 324 326 329 324 314 302 289 251 279 270 283 300 317 326 314
132 91 86 52 253 213 211 204 209 208 207 204 205 207 215 222 241 262 276 279 287 306 321 319 325 337 331 321 316 312 310 303 303 313 276 252 256 270 272 288 311 319 312
114 112 73 23 11 298 247 219 215 219 214 214 221 220 228 243 260 265 305 323 330 331 331 330 319 303 298 304 308 308 300 286 294 310 294 265 279 284 258 292 312 318 310
359 36 209 288 244 208 228 237 215 220 241 246 237 235 232 207 222 291 331 345 323 321 327 319 307 308 291 314 318 312 293 288 292 304 286 280 274 252 264 296 312 320 311
203 258 36 142 216 91 155 249 262 181 235 235 211 214 207 246 275 304 304 302 317 336 326 309 311 323 302 314 310 336 278 298 294 273 304 290 299 278 290 302 317 315 317
129 122 87 158 236 142 190 192 262 239 231 240 245 230 235 236 242 242 250 263 290 339 345 358 356 4 360 343 333 346 336 283 281 314 288 279 287 311 299 296 306 304 312
125 120 353 193 178 261 262 234 231 195 236 248 237 244 245 232 228 240 241 243 259 281 312 349 354 350 333 330 344 327 313 328 288 294 300 298 280 287 286 295 302 290 300
68 65 51 62 331 249 232 250 238 232 198 216 225 239 240 245 244 243 250 244 234 245 254 272 275 341 338 350 1 342 326 323 309 309 298 281 270 290 269 287 301 280 319
57 71 78 36 315 285 264 145 142 216 224 228 235 246 254 247 246 238 240 241 244 254 264 238 220 248 272 297 308 326 325 320 312 322 325 288 309 283 269 279 289 280 293
62 34 61 281 287 307 297 187 206 218 226 263 262 265 263 250 247 236 241 253 266 263 251 255 267 273 286 276 281 229 297 301 298 293 310 317 320 332 286 301 307 275 292
40 41 35 29 344 334 359 293 281 269 253 270 276 288 282 277 285 259 240 251 260 270 259 277 295 332 336 329 316 303 293 293 298 302 298 310 315 302 266 281 285 12 309
42 49 25 18 28 55 36 6 269 285 280 273 284 270 274 274 281 248 266 268 267 256 290 312 323 326 335 336 325 318 314 318 321 318 308 299 302 288 281 293 341 322 311
8 1 358 360 7 348 3 355 336 354 332 283 271 253 242 228 246 269 265 244 254 294 324 331 325 324 321 322 320 313 308 307 319 317 332 328 289 280 297 292 302 301 295
353 346 345 349 344 340 344 338 331 321 320 310 278 240 236 223 235 226 254 279 291 314 311 315 310 305 306 318 319 317 320 313 276 317 317 326 312 324 303 297 302 311 289
338 326 321 323 332 337 333 325 319 309 298 304 320 316 312 297 301 276 259 241 305 303 309 305 300 285 293 296 304 286 300 280 302 308 296 317 306 315 322 326 310 334 310
336 318 310 335 348 341 340 330 321 319 312 307 296 299 301 308 321 314 311 310 298 288 284 278 292 293 281 283 288 269 259 278 297 302 283 313 308 316 303 305 311 319 327
357 9 61 335 337 328 324 315 310 308 305 309 304 304 306 300 298 295 295 294 290 274 273 271 276 275 280 277 273 276 277 277 277 279 314 311 295 289 290 302 309 319 324
339 331 323 335 331 328 325 317 311 305 289 298 299 301 303 305 302 305 299 292 290 280 281 270 265 269 273 279 270 270 273 273 270 282 299 302 301 299 293 296 295 325 341
Wind_Speed_850mb
17 15 19 21 29 30 29 26 29 32 30 32 33 32 30 29 28 28 28 27 27 28 28 28 28 30 33 37 41 44 47 43 47 53 53 48 44 43 43 40 37 38 37
16 13 14 17 23 27 32 30 28 28 29 27 29 28 26 24 24 23 23 22 22 22 23 24 25 25 27 30 34 36 35 35 37 37 39 46 44 39 36 35 35 37 37
15 18 14 16 22 26 34 32 29 26 25 24 26 25 22 20 19 20 18 17 17 17 17 19 20 21 22 25 27 28 25 23 23 25 26 29 34 37 32 30 31 32 33
9 17 15 16 19 26 31 30 30 25 23 21 19 20 19 15 15 15 14 13 12 13 13 13 15 16 17 19 21 22 19 16 19 21 16 17 16 24 29 26 27 26 27
12 15 15 17 21 25 28 28 28 24 21 18 17 15 15 12 10 9 9 8 7 7 8 9 11 13 13 14 15 15 13 10 13 17 15 9 9 13 25 22 20 21 22
8 8 6 10 17 25 28 26 24 24 19 16 13 13 13 11 9 6 3 2 2 4 6 9 10 12 14 14 15 12 8 3 4 4 11 8 12 11 24 23 19 17 17
11 7 6 7 11 17 24 28 28 26 22 17 13 12 12 11 9 6 4 5 6 8 9 11 13 15 16 18 18 19 18 15 10 6 4 5 13 19 26 26 22 18 14
12 12 9 9 10 13 18 24 26 25 23 19 16 15 14 12 11 9 9 9 11 12 12 14 16 18 21 22 24 25 26 26 22 11 13 6 21 30 29 20 25 25 18
11 15 6 2 9 15 16 16 20 21 21 19 19 18 17 17 16 14 13 13 13 15 15 16 18 20 22 26 28 31 31 30 28 22 15 24 13 28 34 28 29 33 29
15 15 23 7 6 9 10 13 16 18 21 23 23 21 20 19 17 17 17 17 16 18 20 22 22 24 26 27 29 31 32 38 42 37 15 17 23 27 35 31 32 37 36
16 11 17 23 7 11 7 7 8 11 14 15 17 18 17 14 13 10 8 12 17 17 19 21 21 18 17 23 29 32 32 29 31 41 22 14 30 41 33 26 35 40 39
12 2 13 32 6 9 4 9 7 8 9 10 10 11 9 6 3 7 8 16 26 24 20 22 23 25 20 22 28 40 40 40 34 32 40 29 38 23 22 26 35 44 37
20 9 3 20 10 5 14 15 3 5 6 5 8 10 8 8 9 13 20 23 19 20 22 23 27 29 30 41 26 43 42 30 30 34 24 15 17 22 35 27 32 38 39
8 17 4 13 15 14 15 11 15 13 11 14 16 14 17 16 17 20 20 17 10 13 16 13 16 20 24 24 18 31 33 60 48 34 30 22 40 37 39 36 30 32 38
24 12 4 25 13 3 10 19 30 17 18 20 24 30 30 30 29 21 25 20 20 13 12 11 15 20 24 23 20 24 26 30 32 38 32 38 33 40 39 37 37 28 39
26 22 15 7 10 10 19 23 17 22 19 30 39 40 34 37 35 32 33 30 22 20 12 12 10 5 13 14 17 21 21 20 39 41 43 40 40 44 40 32 37 38 36
23 20 29 18 10 18 7 11 6 12 25 32 35 39 35 34 32 27 30 27 25 22 23 21 15 10 14 19 18 17 19 28 26 24 32 34 31 36 43 27 32 39 33
25 16 7 10 20 14 6 5 7 10 8 19 30 30 24 23 22 22 25 24 20 18 18 16 12 11 9 15 17 8 19 22 25 23 23 30 40 32 26 31 27 21 29
26 28 24 14 13 17 13 7 10 11 13 10 19 21 21 22 21 18 20 11 11 10 11 7 7 14 16 17 21 20 23 28 31 33 29 23 35 18 21 31 21 14 13
30 23 21 25 24 10 9 10 3 7 16 16 21 26 27 22 15 11 8 5 7 6 12 13 18 20 23 24 24 29 31 28 24 32 33 33 34 26 27 32 20 17 16
28 30 31 35 34 13 15 19 13 15 15 8 17 13 16 20 12 21 21 17 10 9 18 33 40 42 40 34 35 36 35 34 25 30 26 19 17 23 26 30 37 34 24
29 31 27 26 32 36 29 27 33 29 31 28 24 18 25 27 29 23 13 14 19 44 54 53 42 35 36 36 36 35 39 45 13 14 25 21 19 19 24 26 21 19 21
25 30 30 31 18 21 29 41 39 41 46 47 39 38 40 41 40 40 41 27 53 65 54 59 37 31 37 40 28 21 13 13 43 38 26 24 27 25 20 13 15 12 13
21 32 26 7 11 17 33 46 50 47 53 66 65 60 56 51 40 35 40 45 43 49 44 52 57 43 39 48 43 27 29 36 36 25 16 26 19 24 8 9 16 21 27
18 14 11 26 35 37 45 45 47 43 47 48 56 61 67 66 61 54 51 47 42 40 36 38 47 44 40 43 49 45 43 41 37 33 26 15 15 20 15 14 20 22 29
31 41 41 44 39 47 52 46 44 44 38 45 54 61 67 66 55 43 50 52 50 39 34 41 48 49 48 46 50 56 48 40 32 30 31 18 16 11 21 21 16 15 15
Wind_Direction_850mb
132 143 143 154 155 155 153 143 130 127 128 125 117 107 102 101 99 96 92 87 84 81 79 78 76 74 73 71 69 70 72 75 71 66 60 58 59 64 67 69 69 69 68
155 146 141 148 156 157 157 150 140 135 132 130 122 115 111 108 105 99 94 89 81 76 73 70 68 66 68 70 69 71 72 71 69 67 63 54 49 52 63 67 68 70 69
152 151 144 143 153 159 162 156 149 144 142 143 136 127 121 116 112 105 96 89 84 75 67 61 58 56 57 62 68 71 68 70 71 57 50 63 44 37 47 59 63 66 71
137 148 141 140 151 158 166 163 158 152 149 149 145 139 134 130 120 112 103 91 78 67 55 48 45 44 41 47 61 73 68 58 53 43 37 14 37 31 27 40 53 59 64
77 146 150 151 155 162 171 171 168 163 155 156 155 158 146 143 141 129 111 94 73 53 39 26 21 19 21 23 33 57 82 77 64 46 37 304 336 347 359 18 34 49 52
136 147 144 170 164 165 171 174 175 177 172 166 166 174 171 167 168 163 150 102 18 360 354 349 346 348 351 354 357 5 19 70 187 30 21 250 333 331 341 350 2 21 38
141 202 210 192 187 179 178 179 181 185 187 187 186 193 195 191 196 215 234 280 305 312 319 324 325 324 326 331 336 338 338 336 333 130 72 271 287 302 319 331 341 345 358
116 112 157 174 183 187 195 190 192 194 195 199 203 207 207 209 219 234 258 277 289 296 306 312 316 318 319 324 328 329 330 331 327 284 275 281 269 275 303 321 334 327 318
53 33 20 108 180 191 203 205 203 197 200 202 208 207 210 217 227 241 257 274 289 294 304 309 316 316 321 322 324 326 329 324 314 302 289 251 279 270 283 300 317 326 314
132 91 86 52 253 213 211 204 209 208 207 204 205 207 215 222 241 262 276 279 287 306 321 319 325 337 331 321 316 312 310 303 303 313 276 252 256 270 272 288 311 319 312
114 112 73 23 11 298 247 219 215 219 214 214 221 220 228 243 260 265 305 323 330 331 331 330 319 303 298 304 308 308 300 286 294 310 294 265 279 284 258 292 312 318 310
359 36 209 288 244 208 228 237 215 220 241 246 237 235 232 207 222 291 331 345 323 321 327 319 307 308 291 314 318 312 293 288 292 304 286 280 274 252 264 296 312 320 311
203 258 36 142 216 91 155 249 262 181 235 235 211 214 207 246 275 304 304 302 317 336 326 309 311 323 302 314 310 336 278 298 294 273 304 290 299 278 290 302 317 315 317
129 122 87 158 236 142 190 192 262 239 231 240 245 230 235 236 242 242 250 263 290 339 345 358 356 4 360 343 333 346 336 283 281 314 288 279 287 311 299 296 306 304 312
125 120 353 193 178 261 262 234 231 195 236 248 237 244 245 232 228 240 241 243 259 281 312 349 354 350 333 330 344 327 313 328 288 294 300 298 280 287 286 295 302 290 300
68 65 51 62 331 249 232 250 238 232 198 216 225 239 240 245 244 243 250 244 234 245 254 272 275 341 338 350 1 342 326 323 309 309 298 281 270 290 269 287 301 280 319
57 71 78 36 315 285 264 145 142 216 224 228 235 246 254 247 246 238 240 241 244 254 264 238 220 248 272 297 308 326 325 320 312 322 325 288 309 283 269 279 289 280 293
62 34 61 281 287 307 297 187 206 218 226 263 262 265 263 250 247 236 241 253 266 263 251 255 267 273 286 276 281 229 297 301 298 293 310 317 320 332 286 301 307 275 292
40 41 35 29 344 334 359 293 281 269 253 270 276 288 282 277 285 259 240 251 260 270 259 277 295 332 336 329 316 303 293 293 298 302 298 310 315 302 266 281 285 12 309
42 49 25 18 28 55 36 6 269 285 280 273 284 270 274 274 281 248 266 268 267 256 290 312 323 326 335 336 325 318 314 318 321 318 308 299 302 288 281 293 341 322 311
8 1 358 360 7 348 3 355 336 354 332 283 271 253 242 228 246 269 265 244 254 294 324 331 325 324 321 322 320 313 308 307 319 317 332 328 289 280 297 292 302 301 295
353 346 345 349 344 340 344 338 331 321 320 310 278 240 236 223 235 226 254 279 291 314 311 315 310 305 306 318 319 317 320 313 276 317 317 326 312 324 303 297 302 311 289
338 326 321 323 332 337 333 325 319 309 298 304 320 316 312 297 301 276 259 241 305 303 309 305 300 285 293 296 304 286 300 280 302 308 296 317 306 315 322 326 310 334 310
336 318 310 335 348 341 340 330 321 319 312 307 296 299 301 308 321 314 311 310 298 288 284 278 292 293 281 283 288 269 259 278 297 302 283 313 308 316 303 305 311 319 327
357 9 61 335 337 328 324 315 310 308 305 309 304 304 306 300 298 295 295 294 290 274 273 271 276 275 280 277 273 276 277 277 277 279 314 311 295 289 290 302 309 319 324
339 331 323 335 331 328 325 317 311 305 289 298 299 301 303 305 302 305 299 292 290 280 281 270 265 269 273 279 270 270 273 273 270 282 299 302 301 299 293 296 295 325 341